Coffman Cove FAA Web Cam AK US FAA-ALASKA current weather conditions

sailwx.info

Wind from 005 at 1 knots

Air temperature 14.7° C
Dewpoint 6.8° C

Last reported at 2020-Jun-06 22:50 UTC.
Time now 2020-Jun-06 23:18 UTC

Location: N 56°00' W 132°49'.
View on Google Maps.

See reports from other nearby stations

  
Tides and Currents Weather Stations Pressure Air Temp Water Temp Dewpoint Dewpoint Depression Visibility Wind Speed Wind Dir Waves Ship Positions
date/time (UTC)wind fromknots sea level pressurealtimeterstation pressurevisibilityair tempwater tempwave heightnotes
2020-Jun-06 22:50 005 1 14.7
2020-Jun-06 22:40 010 6 15.3
2020-Jun-06 22:30 005 4 14.7
2020-Jun-06 22:20 352 3 15.3
2020-Jun-06 22:10 020 2 15.1
2020-Jun-06 22:00 322 1 14.3
2020-Jun-06 21:50 027 4 13.5
2020-Jun-06 21:40 045 4 13.0
2020-Jun-06 21:30 029 5 13.2
2020-Jun-06 21:20 029 2 13.4
2020-Jun-06 21:10 057 3 13.1
2020-Jun-06 21:00 048 4 13.4
2020-Jun-06 20:50 115 0 13.0
2020-Jun-06 20:40 091 4 12.6
2020-Jun-06 20:30 039 4 12.8
2020-Jun-06 20:20 028 1 12.8
2020-Jun-06 20:10 040 4 12.6
2020-Jun-06 20:00 029 2 12.5
2020-Jun-06 19:50 032 2 12.5
2020-Jun-06 19:40 032 2 12.6
2020-Jun-06 19:30 356 0 13.8
2020-Jun-06 19:20 235 1 14.1
2020-Jun-06 19:10 278 2 13.8
2020-Jun-06 19:00 283 2 13.4
2020-Jun-06 18:50 280 1 13.4
2020-Jun-06 18:40 208 1 13.2
2020-Jun-06 18:30 270 2 13.1
2020-Jun-06 18:20 267 2 12.5
2020-Jun-06 18:10 278 2 12.3
2020-Jun-06 18:00 277 3 12.3
2020-Jun-06 17:50 229 1 11.9
2020-Jun-06 17:40 246 2 11.9
2020-Jun-06 17:30 258 1 11.8
2020-Jun-06 17:20 266 1 11.7
2020-Jun-06 17:10 253 3 11.7
2020-Jun-06 17:00 280 1 11.7
2020-Jun-06 16:50 266 0 11.7
2020-Jun-06 16:40 254 2 11.4
2020-Jun-06 16:30 234 3 11.1
2020-Jun-06 16:20 213 1 10.7
2020-Jun-06 16:10 245 2 10.3
2020-Jun-06 16:00 267 0 10.0
2020-Jun-06 15:50 196 0 9.8
2020-Jun-06 15:40 204 2 9.8
2020-Jun-06 15:30 217 1 9.9
2020-Jun-06 15:20 222 3 9.4
2020-Jun-06 15:10 248 3 9.7
2020-Jun-06 15:00 223 4 9.9
2020-Jun-06 14:50 239 3 9.9
2020-Jun-06 14:40 220 2 9.7
2020-Jun-06 14:30 221 2 9.4
2020-Jun-06 14:20 241 3 9.8
2020-Jun-06 14:10 250 2 9.9
2020-Jun-06 14:00 220 2 9.8
2020-Jun-06 13:50 244 3 9.6
2020-Jun-06 13:40 216 3 9.8
2020-Jun-06 13:30 224 4 9.7
2020-Jun-06 13:20 240 6 9.6
2020-Jun-06 13:10 249 3 9.6
2020-Jun-06 13:00 232 4 9.6
2020-Jun-06 12:50 232 5 9.4
2020-Jun-06 12:40 252 3 9.4
2020-Jun-06 12:30 246 2 9.6
2020-Jun-06 12:20 232 4 9.7
2020-Jun-06 12:10 236 4 9.7
2020-Jun-06 12:00 235 3 9.9
2020-Jun-06 11:50 234 3 9.9
2020-Jun-06 11:40 220 4 9.8
2020-Jun-06 11:30 241 3 9.9
2020-Jun-06 11:20 238 6 9.7
2020-Jun-06 11:10 246 3 9.7
2020-Jun-06 11:00 239 4 9.8
2020-Jun-06 10:50 223 4 10.0
2020-Jun-06 10:40 237 4 10.3
2020-Jun-06 10:30 209 3 10.1
2020-Jun-06 10:20 243 5 10.0
2020-Jun-06 10:10 235 3 10.4
2020-Jun-06 10:00 248 5 10.4
2020-Jun-06 09:50 248 4 10.4
2020-Jun-06 09:40 220 4 10.4
2020-Jun-06 09:30 230 2 10.5
2020-Jun-06 09:20 226 3 10.8
2020-Jun-06 09:10 243 3 11.0
2020-Jun-06 09:00 223 2 10.7
2020-Jun-06 08:50 244 3 10.7
2020-Jun-06 08:40 252 4 10.7
2020-Jun-06 08:30 244 3 10.9
2020-Jun-06 08:20 223 2 10.9
2020-Jun-06 08:10 220 3 11.2
2020-Jun-06 08:00 246 3 11.0
2020-Jun-06 07:50 243 4 11.0
2020-Jun-06 07:40 232 3 11.1
2020-Jun-06 07:30 219 3 11.0
2020-Jun-06 07:20 231 4 11.1
2020-Jun-06 07:10 255 4 11.1
2020-Jun-06 07:00 240 3 11.3
2020-Jun-06 06:50 236 4 11.5
2020-Jun-06 06:40 221 5 11.6
2020-Jun-06 06:30 228 3 11.7
2020-Jun-06 06:20 243 3 11.7
2020-Jun-06 06:10 205 6 11.8
2020-Jun-06 06:00 235 5 11.8
2020-Jun-06 05:50 239 3 11.6
2020-Jun-06 05:40 234 3 12.2
2020-Jun-06 05:30 254 2 12.6
2020-Jun-06 05:20 247 3 12.9
2020-Jun-06 05:10 243 3 13.2
2020-Jun-06 05:00 276 4 13.3
2020-Jun-06 04:50 273 4 13.3
2020-Jun-06 04:40 264 3 13.5
2020-Jun-06 04:30 270 2 13.7
2020-Jun-06 04:20 295 3 13.9
2020-Jun-06 04:10 279 1 14.2
2020-Jun-06 04:00 306 2 14.5
2020-Jun-06 03:50 309 3 14.4
2020-Jun-06 03:40 274 6 14.5
2020-Jun-06 03:30 338 1 15.1
2020-Jun-06 03:20 322 3 15.0
2020-Jun-06 03:10 308 4 15.0
2020-Jun-06 03:00 350 1 15.8
2020-Jun-06 02:50 331 1 15.6
2020-Jun-06 02:40 353 1 15.4
2020-Jun-06 02:30 342 5 15.4
2020-Jun-06 02:20 332 5 15.3
2020-Jun-06 02:10 335 4 15.2
2020-Jun-06 02:00 067 0 15.1
2020-Jun-06 01:50 020 1 15.3
2020-Jun-06 01:40 354 4 15.4
2020-Jun-06 01:30 025 0 15.2
2020-Jun-06 01:20 009 3 14.6
2020-Jun-06 01:10 039 7 14.5
2020-Jun-06 01:00 062 4 15.3
2020-Jun-06 00:50 355 3 14.9
2020-Jun-06 00:40 043 6 14.4
2020-Jun-06 00:30 017 4 14.4
2020-Jun-06 00:20 024 6 14.1
2020-Jun-06 00:10 014 2 14.0
2020-Jun-06 00:00 026 2 14.2
2020-Jun-05 23:50 063 3 14.1
2020-Jun-05 23:40 039 7 14.1
2020-Jun-05 23:30 042 6 13.9
2020-Jun-05 23:20 056 3 13.8
2020-Jun-05 23:10 045 5 13.3
2020-Jun-05 23:00 040 4 13.5
2020-Jun-05 22:50 043 1 13.5
2020-Jun-05 22:40 024 2 13.2
2020-Jun-05 22:30 027 3 13.5
2020-Jun-05 22:20 039 6 12.8
2020-Jun-05 22:10 031 4 13.1
2020-Jun-05 22:00 034 4 12.6
2020-Jun-05 21:50 031 7 12.8
2020-Jun-05 21:40 029 5 12.5
2020-Jun-05 21:30 357 3 12.6
2020-Jun-05 21:20 035 4 12.5
2020-Jun-05 21:10 029 6 12.7
2020-Jun-05 21:00 038 6 12.7
2020-Jun-05 20:50 029 3 12.2
2020-Jun-05 20:40 053 6 12.9
2020-Jun-05 20:30 080 7 12.6
2020-Jun-05 20:20 086 6 12.5
2020-Jun-05 20:10 062 4 13.3
2020-Jun-05 20:00 057 4 12.9
2020-Jun-05 19:50 067 7 12.8
2020-Jun-05 19:40 087 5 12.5
2020-Jun-05 19:30 073 7 12.4
2020-Jun-05 19:20 087 9 12.3
2020-Jun-05 19:10 085 9 12.6
2020-Jun-05 19:00 079 7 12.5
2020-Jun-05 18:50 058 8 12.5
2020-Jun-05 18:40 072 8 12.2
2020-Jun-05 18:30 084 13 12.1
2020-Jun-05 18:20 074 8 11.9
2020-Jun-05 18:10 083 9 12.0
2020-Jun-05 18:00 075 8 12.2
2020-Jun-05 17:50 087 9 11.9
2020-Jun-05 17:40 068 7 11.5
2020-Jun-05 17:30 097 9 11.5
2020-Jun-05 17:20 085 7 11.6
2020-Jun-05 17:10 054 8 11.6
2020-Jun-05 17:00 075 6 10.6
2020-Jun-05 16:50 068 10 11.6
2020-Jun-05 16:40 057 6 11.3
2020-Jun-05 16:30 077 7 11.5
2020-Jun-05 16:20 043 7 10.8
2020-Jun-05 16:10 057 5 10.6
2020-Jun-05 16:00 064 7 9.6
2020-Jun-05 15:50 072 6 9.8
2020-Jun-05 15:40 075 8 9.8
2020-Jun-05 15:30 074 5 10.1
2020-Jun-05 15:20 085 7 9.5
2020-Jun-05 15:10 082 7 9.3
2020-Jun-05 15:00 080 5 9.2
2020-Jun-05 14:50 081 3 9.1
2020-Jun-05 14:40 097 5 9.0
2020-Jun-05 14:30 099 5 8.9
2020-Jun-05 14:20 077 4 8.8
2020-Jun-05 14:10 067 2 8.9
2020-Jun-05 14:00 103 2 9.0
2020-Jun-05 13:50 079 3 8.6
2020-Jun-05 13:40 076 3 8.5
2020-Jun-05 13:30 129 3 8.4
2020-Jun-05 13:20 097 4 8.3
2020-Jun-05 13:10 097 8 8.3
2020-Jun-05 13:00 124 6 8.2
2020-Jun-05 12:50 097 2 8.2
2020-Jun-05 12:40 084 5 8.2
2020-Jun-05 12:30 115 0 8.2
2020-Jun-05 12:20 102 4 8.2
2020-Jun-05 12:10 096 2 8.2
2020-Jun-05 12:00 099 4 8.1
2020-Jun-05 11:50 092 5 8.1
2020-Jun-05 11:40 072 3 8.1
2020-Jun-05 11:30 110 2 8.2
2020-Jun-05 11:20 103 2 8.2
2020-Jun-05 11:10 087 4 8.2
2020-Jun-05 11:00 113 6 7.9
2020-Jun-05 10:50 126 3 7.8
2020-Jun-05 10:40 158 2 7.8
2020-Jun-05 10:30 119 2 7.8
2020-Jun-05 10:20 132 0 7.7
2020-Jun-05 10:10 073 4 7.7
2020-Jun-05 10:00 047 1 7.8
2020-Jun-05 09:50 102 0 7.9
2020-Jun-05 09:40 107 3 7.9
2020-Jun-05 09:30 192 0 7.8
2020-Jun-05 09:20 120 2 7.6
2020-Jun-05 09:10 080 5 7.7
2020-Jun-05 09:00 099 4 7.8
2020-Jun-05 08:50 092 8 7.9
2020-Jun-05 08:40 095 6 7.9
2020-Jun-05 08:30 122 5 7.8
2020-Jun-05 08:20 099 5 8.1
2020-Jun-05 08:10 098 1 8.1
2020-Jun-05 08:00 102 4 8.2
2020-Jun-05 07:50 132 3 8.4
2020-Jun-05 07:40 101 2 8.6
2020-Jun-05 07:30 121 2 8.5
2020-Jun-05 07:20 107 2 8.5
2020-Jun-05 07:10 178 1 8.4
2020-Jun-05 07:00 110 2 8.4
2020-Jun-05 06:50 120 1 8.6
2020-Jun-05 06:40 103 3 8.5
2020-Jun-05 06:30 100 3 8.7
2020-Jun-05 06:20 112 1 8.7
2020-Jun-05 06:10 097 1 8.9
2020-Jun-05 06:00 104 3 8.9
2020-Jun-05 05:50 111 3 8.9
2020-Jun-05 05:40 122 3 8.8
2020-Jun-05 05:30 116 3 8.9
2020-Jun-05 05:20 075 2 9.1
2020-Jun-05 05:10 115 1 9.3
2020-Jun-05 05:00 161 0 9.4
2020-Jun-05 04:50 180 1 8.9
2020-Jun-05 04:40 208 2 8.8
2020-Jun-05 04:30 205 2 8.8
2020-Jun-05 04:20 227 2 9.1
2020-Jun-05 04:10 202 1 9.3
2020-Jun-05 04:00 222 1 9.5
2020-Jun-05 03:50 238 1 9.8
2020-Jun-05 03:40 179 0 9.7
2020-Jun-05 03:30 153 2 9.6
2020-Jun-05 03:20 130 2 9.5
2020-Jun-05 03:10 108 2 9.6
2020-Jun-05 03:00 052 0 9.8
2020-Jun-05 02:50 116 1 9.8
2020-Jun-05 02:40 080 3 9.8
2020-Jun-05 02:30 087 3 10.0
2020-Jun-05 02:20 090 5 10.1
2020-Jun-05 02:10 056 2 9.9
2020-Jun-05 02:00 079 3 10.2
2020-Jun-05 01:50 065 0 10.8
2020-Jun-05 01:40 327 1 10.6
2020-Jun-05 01:30 247 2 10.6
2020-Jun-05 01:20 229 1 10.2
2020-Jun-05 01:10 293 1 10.7
2020-Jun-05 01:00 259 2 10.2
2020-Jun-05 00:50 249 1 10.5
2020-Jun-05 00:40 200 1 10.1
2020-Jun-05 00:30 080 3 9.8
2020-Jun-05 00:20 079 5 10.0
2020-Jun-05 00:10 071 3 10.0
2020-Jun-05 00:00 073 3 10.2
2020-Jun-04 23:50 052 4 10.0
2020-Jun-04 23:40 059 1 9.8
2020-Jun-04 23:30 063 3 9.8
2020-Jun-04 23:20 269 1 10.5
2020-Jun-04 23:10 045 0 10.5
2020-Jun-04 23:00 294 1 9.7